owner,sensor,date,latitude,longitude,sea_surface_height_above_sea_level,qcFlag 
TCOON,ioos:station:TCOON:013:1,2017-06-01T00:18:00Z,27.4847,-97.3181,0.798,1111122 
TCOON,ioos:station:TCOON:013:1,2017-06-01T01:18:00Z,27.4847,-97.3181,0.804,1111122 
TCOON,ioos:station:TCOON:013:1,2017-06-01T02:18:00Z,27.4847,-97.3181,0.803,1111122 
TCOON,ioos:station:TCOON:013:1,2017-06-01T03:18:00Z,27.4847,-97.3181,0.811,1111122 
TCOON,ioos:station:TCOON:013:1,2017-06-01T04:18:00Z,27.4847,-97.3181,0.807,1111122 
TCOON,ioos:station:TCOON:013:1,2017-06-01T05:24:00Z,27.4847,-97.3181,0.811,1111122 
TCOON,ioos:station:TCOON:013:1,2017-06-01T06:24:00Z,27.4847,-97.3181,0.81,1111122 
TCOON,ioos:station:TCOON:013:1,2017-06-01T07:36:00Z,27.4847,-97.3181,0.809,1111122 
TCOON,ioos:station:TCOON:013:1,2017-06-01T09:42:00Z,27.4847,-97.3181,0.796,1111122 
TCOON,ioos:station:TCOON:013:1,2017-06-01T10:30:00Z,27.4847,-97.3181,0.794,1111122 
TCOON,ioos:station:TCOON:013:1,2017-06-01T13:48:00Z,27.4847,-97.3181,0.789,1111122 
TCOON,ioos:station:TCOON:013:1,2017-06-01T19:42:00Z,27.4847,-97.3181,0.801,1111122 
TCOON,ioos:station:TCOON:013:1,2017-06-01T20:18:00Z,27.4847,-97.3181,0.805,1111122 
TCOON,ioos:station:TCOON:013:1,2017-06-01T21:54:00Z,27.4847,-97.3181,0.799,1111122 
TCOON,ioos:station:TCOON:013:1,2017-06-01T22:24:00Z,27.4847,-97.3181,0.799,1111122 
TCOON,ioos:station:TCOON:013:1,2017-06-01T23:18:00Z,27.4847,-97.3181,0.801,1111122 
TCOON,ioos:station:TCOON:013:1,2017-06-02T00:36:00Z,27.4847,-97.3181,0.805,1111122 
TCOON,ioos:station:TCOON:013:1,2017-06-02T01:24:00Z,27.4847,-97.3181,0.807,1111122 
TCOON,ioos:station:TCOON:013:1,2017-06-02T02:18:00Z,27.4847,-97.3181,0.803,1111122 
TCOON,ioos:station:TCOON:013:1,2017-06-02T03:18:00Z,27.4847,-97.3181,0.796,1111122 
TCOON,ioos:station:TCOON:013:1,2017-06-02T04:24:00Z,27.4847,-97.3181,0.796,1111122 
TCOON,ioos:station:TCOON:013:1,2017-06-02T05:24:00Z,27.4847,-97.3181,0.795,1111122 
TCOON,ioos:station:TCOON:013:1,2017-06-02T06:42:00Z,27.4847,-97.3181,0.793,1111122 
TCOON,ioos:station:TCOON:013:1,2017-06-02T07:18:00Z,27.4847,-97.3181,0.798,1111122 
TCOON,ioos:station:TCOON:013:1,2017-06-02T08:48:00Z,27.4847,-97.3181,0.794,1111122 
TCOON,ioos:station:TCOON:013:1,2017-06-02T09:18:00Z,27.4847,-97.3181,0.794,1111122 
TCOON,ioos:station:TCOON:013:1,2017-06-02T11:36:00Z,27.4847,-97.3181,0.797,1111122 
TCOON,ioos:station:TCOON:013:1,2017-06-02T14:36:00Z,27.4847,-97.3181,0.79,1111122 
TCOON,ioos:station:TCOON:013:1,2017-06-02T20:48:00Z,27.4847,-97.3181,0.774,1111122 
TCOON,ioos:station:TCOON:013:1,2017-06-03T01:24:00Z,27.4847,-97.3181,0.783,1111122 
TCOON,ioos:station:TCOON:013:1,2017-06-03T03:24:00Z,27.4847,-97.3181,0.781,1111122 
TCOON,ioos:station:TCOON:013:1,2017-06-03T05:48:00Z,27.4847,-97.3181,0.787,1111122 
TCOON,ioos:station:TCOON:013:1,2017-06-03T06:18:00Z,27.4847,-97.3181,0.791,1111122 
TCOON,ioos:station:TCOON:013:1,2017-06-03T08:36:00Z,27.4847,-97.3181,0.788,1111122 
TCOON,ioos:station:TCOON:013:1,2017-06-03T13:36:00Z,27.4847,-97.3181,0.792,1111122 
TCOON,ioos:station:TCOON:013:1,2017-06-03T20:36:00Z,27.4847,-97.3181,0.782,1111122 
TCOON,ioos:station:TCOON:013:1,2017-06-03T23:30:00Z,27.4847,-97.3181,0.783,1111122 
TCOON,ioos:station:TCOON:013:1,2017-06-04T02:54:00Z,27.4847,-97.3181,0.784,1111122 
TCOON,ioos:station:TCOON:013:1,2017-06-04T03:18:00Z,27.4847,-97.3181,0.785,1111122 
TCOON,ioos:station:TCOON:013:1,2017-06-04T04:24:00Z,27.4847,-97.3181,0.766,1111122 
TCOON,ioos:station:TCOON:013:1,2017-06-04T05:18:00Z,27.4847,-97.3181,0.764,1111122 
TCOON,ioos:station:TCOON:013:1,2017-06-04T07:18:00Z,27.4847,-97.3181,0.77,1111122 
TCOON,ioos:station:TCOON:013:1,2017-06-04T08:36:00Z,27.4847,-97.3181,0.773,1111122 
TCOON,ioos:station:TCOON:013:1,2017-06-04T09:18:00Z,27.4847,-97.3181,0.774,1111122 
TCOON,ioos:station:TCOON:013:1,2017-06-04T14:30:00Z,27.4847,-97.3181,0.788,1111122 
TCOON,ioos:station:TCOON:013:1,2017-06-04T15:24:00Z,27.4847,-97.3181,0.782,1111122 
TCOON,ioos:station:TCOON:013:1,2017-06-04T17:18:00Z,27.4847,-97.3181,0.784,1111122 
TCOON,ioos:station:TCOON:013:1,2017-06-04T19:00:00Z,27.4847,-97.3181,0.791,1111122 
TCOON,ioos:station:TCOON:013:1,2017-06-04T19:30:00Z,27.4847,-97.3181,0.79,1111122 
TCOON,ioos:station:TCOON:013:1,2017-06-04T21:18:00Z,27.4847,-97.3181,0.788,1111122 
TCOON,ioos:station:TCOON:013:1,2017-06-04T22:48:00Z,27.4847,-97.3181,0.793,1111122 
TCOON,ioos:station:TCOON:013:1,2017-06-05T00:24:00Z,27.4847,-97.3181,0.775,1111122 
TCOON,ioos:station:TCOON:013:1,2017-06-05T04:18:00Z,27.4847,-97.3181,0.762,1111122 
TCOON,ioos:station:TCOON:013:1,2017-06-05T15:18:00Z,27.4847,-97.3181,0.792,1111122 
TCOON,ioos:station:TCOON:013:1,2017-06-05T17:42:00Z,27.4847,-97.3181,0.796,1111122 
TCOON,ioos:station:TCOON:013:1,2017-06-05T18:36:00Z,27.4847,-97.3181,0.802,1111122 
TCOON,ioos:station:TCOON:013:1,2017-06-05T20:36:00Z,27.4847,-97.3181,0.793,1111122 
TCOON,ioos:station:TCOON:013:1,2017-06-05T21:18:00Z,27.4847,-97.3181,0.808,1111122 
TCOON,ioos:station:TCOON:013:1,2017-06-05T22:18:00Z,27.4847,-97.3181,0.808,1111122 
TCOON,ioos:station:TCOON:013:1,2017-06-06T01:18:00Z,27.4847,-97.3181,0.788,1111122 
TCOON,ioos:station:TCOON:013:1,2017-06-06T02:30:00Z,27.4847,-97.3181,0.789,1111122 
TCOON,ioos:station:TCOON:013:1,2017-06-06T03:18:00Z,27.4847,-97.3181,0.787,1111122 
TCOON,ioos:station:TCOON:013:1,2017-06-06T04:18:00Z,27.4847,-97.3181,0.786,1111122 
TCOON,ioos:station:TCOON:013:1,2017-06-06T05:18:00Z,27.4847,-97.3181,0.774,1111122 
TCOON,ioos:station:TCOON:013:1,2017-06-06T06:18:00Z,27.4847,-97.3181,0.768,1111122 
TCOON,ioos:station:TCOON:013:1,2017-06-06T07:18:00Z,27.4847,-97.3181,0.765,1111122 
TCOON,ioos:station:TCOON:013:1,2017-06-06T08:18:00Z,27.4847,-97.3181,0.761,1111122 
TCOON,ioos:station:TCOON:013:1,2017-06-06T09:18:00Z,27.4847,-97.3181,0.761,1111122 
TCOON,ioos:station:TCOON:013:1,2017-06-06T10:12:00Z,27.4847,-97.3181,0.76,1111122 
TCOON,ioos:station:TCOON:013:1,2017-06-06T11:18:00Z,27.4847,-97.3181,0.76,1111122 
TCOON,ioos:station:TCOON:013:1,2017-06-06T12:18:00Z,27.4847,-97.3181,0.763,1111122 
TCOON,ioos:station:TCOON:013:1,2017-06-06T13:18:00Z,27.4847,-97.3181,0.766,1111122 
TCOON,ioos:station:TCOON:013:1,2017-06-06T14:18:00Z,27.4847,-97.3181,0.771,1111122 
TCOON,ioos:station:TCOON:013:1,2017-06-06T15:18:00Z,27.4847,-97.3181,0.774,1111122 
TCOON,ioos:station:TCOON:013:1,2017-06-06T16:18:00Z,27.4847,-97.3181,0.779,1111122 
TCOON,ioos:station:TCOON:013:1,2017-06-06T17:24:00Z,27.4847,-97.3181,0.782,1111122 
TCOON,ioos:station:TCOON:013:1,2017-06-06T20:18:00Z,27.4847,-97.3181,0.793,1111122 
TCOON,ioos:station:TCOON:013:1,2017-06-06T21:36:00Z,27.4847,-97.3181,0.791,1111122 
TCOON,ioos:station:TCOON:013:1,2017-06-06T22:18:00Z,27.4847,-97.3181,0.793,1111122 
TCOON,ioos:station:TCOON:013:1,2017-06-06T23:18:00Z,27.4847,-97.3181,0.787,1111122 
TCOON,ioos:station:TCOON:013:1,2017-06-07T00:18:00Z,27.4847,-97.3181,0.787,1111122 
TCOON,ioos:station:TCOON:013:1,2017-06-07T01:48:00Z,27.4847,-97.3181,0.785,1111122 
TCOON,ioos:station:TCOON:013:1,2017-06-07T09:00:00Z,27.4847,-97.3181,0.744,1111122 
TCOON,ioos:station:TCOON:013:1,2017-06-07T10:30:00Z,27.4847,-97.3181,0.746,1111122 
TCOON,ioos:station:TCOON:013:1,2017-06-07T21:36:00Z,27.4847,-97.3181,0.766,1111122 
TCOON,ioos:station:TCOON:013:1,2017-06-08T01:24:00Z,27.4847,-97.3181,0.765,1111122 
TCOON,ioos:station:TCOON:013:1,2017-06-08T11:42:00Z,27.4847,-97.3181,0.743,1111122 
TCOON,ioos:station:TCOON:013:1,2017-06-08T12:36:00Z,27.4847,-97.3181,0.744,1111122 
TCOON,ioos:station:TCOON:013:1,2017-06-08T19:30:00Z,27.4847,-97.3181,0.779,1111122 
TCOON,ioos:station:TCOON:013:1,2017-06-09T09:36:00Z,27.4847,-97.3181,0.729,1111122 
TCOON,ioos:station:TCOON:013:1,2017-06-09T10:18:00Z,27.4847,-97.3181,0.728,1111122 
TCOON,ioos:station:TCOON:013:1,2017-06-09T11:18:00Z,27.4847,-97.3181,0.728,1111122 
TCOON,ioos:station:TCOON:013:1,2017-06-09T13:24:00Z,27.4847,-97.3181,0.737,1111122 
TCOON,ioos:station:TCOON:013:1,2017-06-09T21:18:00Z,27.4847,-97.3181,0.788,1111122 
TCOON,ioos:station:TCOON:013:1,2017-06-09T23:42:00Z,27.4847,-97.3181,0.782,1111122 
TCOON,ioos:station:TCOON:013:1,2017-06-10T22:18:00Z,27.4847,-97.3181,0.797,1111122 
TCOON,ioos:station:TCOON:013:1,2017-06-10T23:24:00Z,27.4847,-97.3181,0.794,1111122 
TCOON,ioos:station:TCOON:013:1,2017-06-11T00:24:00Z,27.4847,-97.3181,0.793,1111122 
TCOON,ioos:station:TCOON:013:1,2017-06-11T01:24:00Z,27.4847,-97.3181,0.793,1111122 
TCOON,ioos:station:TCOON:013:1,2017-06-11T02:18:00Z,27.4847,-97.3181,0.79,1111122 
TCOON,ioos:station:TCOON:013:1,2017-06-11T04:18:00Z,27.4847,-97.3181,0.783,1111122 
TCOON,ioos:station:TCOON:013:1,2017-06-11T05:12:00Z,27.4847,-97.3181,0.781,1111122 
TCOON,ioos:station:TCOON:013:1,2017-06-11T19:18:00Z,27.4847,-97.3181,0.79,1111122 
TCOON,ioos:station:TCOON:013:1,2017-06-11T20:30:00Z,27.4847,-97.3181,0.792,1111122 
TCOON,ioos:station:TCOON:013:1,2017-06-11T21:30:00Z,27.4847,-97.3181,0.794,1111122 
TCOON,ioos:station:TCOON:013:1,2017-06-11T22:18:00Z,27.4847,-97.3181,0.796,1111122 
TCOON,ioos:station:TCOON:013:1,2017-06-11T23:36:00Z,27.4847,-97.3181,0.799,1111122 
TCOON,ioos:station:TCOON:013:1,2017-06-12T00:18:00Z,27.4847,-97.3181,0.8,1111122 
TCOON,ioos:station:TCOON:013:1,2017-06-12T01:18:00Z,27.4847,-97.3181,0.802,1111122 
TCOON,ioos:station:TCOON:013:1,2017-06-12T02:18:00Z,27.4847,-97.3181,0.802,1111122 
TCOON,ioos:station:TCOON:013:1,2017-06-12T03:18:00Z,27.4847,-97.3181,0.798,1111122 
TCOON,ioos:station:TCOON:013:1,2017-06-12T04:18:00Z,27.4847,-97.3181,0.793,1111122 
TCOON,ioos:station:TCOON:013:1,2017-06-13T22:24:00Z,27.4847,-97.3181,0.796,1111122 
TCOON,ioos:station:TCOON:013:1,2017-06-13T23:18:00Z,27.4847,-97.3181,0.799,1111122 
TCOON,ioos:station:TCOON:013:1,2017-06-14T00:24:00Z,27.4847,-97.3181,0.804,1111122 
TCOON,ioos:station:TCOON:013:1,2017-06-14T01:18:00Z,27.4847,-97.3181,0.805,1111122 
TCOON,ioos:station:TCOON:013:1,2017-06-14T03:18:00Z,27.4847,-97.3181,0.806,1111122 
TCOON,ioos:station:TCOON:013:1,2017-06-14T04:24:00Z,27.4847,-97.3181,0.807,1111122 
TCOON,ioos:station:TCOON:013:1,2017-06-14T05:18:00Z,27.4847,-97.3181,0.809,1111122 
TCOON,ioos:station:TCOON:013:1,2017-06-14T06:24:00Z,27.4847,-97.3181,0.813,1111122 
TCOON,ioos:station:TCOON:013:1,2017-06-14T07:24:00Z,27.4847,-97.3181,0.808,1111122 
TCOON,ioos:station:TCOON:013:1,2017-06-14T22:18:00Z,27.4847,-97.3181,0.791,1111122 
TCOON,ioos:station:TCOON:013:1,2017-06-14T23:18:00Z,27.4847,-97.3181,0.796,1111122 
TCOON,ioos:station:TCOON:013:1,2017-06-15T00:48:00Z,27.4847,-97.3181,0.799,1111122 
TCOON,ioos:station:TCOON:013:1,2017-06-15T01:18:00Z,27.4847,-97.3181,0.8,1111122 
TCOON,ioos:station:TCOON:013:1,2017-06-15T02:18:00Z,27.4847,-97.3181,0.801,1111122 
TCOON,ioos:station:TCOON:013:1,2017-06-15T03:24:00Z,27.4847,-97.3181,0.801,1111122 
TCOON,ioos:station:TCOON:013:1,2017-06-15T04:18:00Z,27.4847,-97.3181,0.8,1111122 
TCOON,ioos:station:TCOON:013:1,2017-06-15T05:24:00Z,27.4847,-97.3181,0.8,1111122 
TCOON,ioos:station:TCOON:013:1,2017-06-15T06:24:00Z,27.4847,-97.3181,0.799,1111122 
TCOON,ioos:station:TCOON:013:1,2017-06-15T08:18:00Z,27.4847,-97.3181,0.796,1111122 
TCOON,ioos:station:TCOON:013:1,2017-06-16T18:24:00Z,27.4847,-97.3181,0.735,1111122 
TCOON,ioos:station:TCOON:013:1,2017-06-16T21:30:00Z,27.4847,-97.3181,0.727,1111122 
TCOON,ioos:station:TCOON:013:1,2017-06-16T23:18:00Z,27.4847,-97.3181,0.721,1111122 
TCOON,ioos:station:TCOON:013:1,2017-06-17T00:36:00Z,27.4847,-97.3181,0.721,1111122 
TCOON,ioos:station:TCOON:013:1,2017-06-17T17:48:00Z,27.4847,-97.3181,0.699,1111122 
TCOON,ioos:station:TCOON:013:1,2017-06-17T18:18:00Z,27.4847,-97.3181,0.699,1111122 
TCOON,ioos:station:TCOON:013:1,2017-06-17T19:18:00Z,27.4847,-97.3181,0.698,1111122 
TCOON,ioos:station:TCOON:013:1,2017-06-17T20:18:00Z,27.4847,-97.3181,0.697,1111122 
TCOON,ioos:station:TCOON:013:1,2017-06-17T21:18:00Z,27.4847,-97.3181,0.694,1111122 
TCOON,ioos:station:TCOON:013:1,2017-06-17T22:18:00Z,27.4847,-97.3181,0.689,1111122 
TCOON,ioos:station:TCOON:013:1,2017-06-17T23:18:00Z,27.4847,-97.3181,0.686,1111122 
TCOON,ioos:station:TCOON:013:1,2017-06-19T18:06:00Z,27.4847,-97.3181,0.664,1111122 
TCOON,ioos:station:TCOON:013:1,2017-06-19T19:18:00Z,27.4847,-97.3181,0.662,1111122 
TCOON,ioos:station:TCOON:013:1,2017-06-19T20:18:00Z,27.4847,-97.3181,0.658,1111122 
TCOON,ioos:station:TCOON:013:1,2017-06-19T21:18:00Z,27.4847,-97.3181,0.658,1111122 
TCOON,ioos:station:TCOON:013:1,2017-06-19T22:18:00Z,27.4847,-97.3181,0.657,1111122 
TCOON,ioos:station:TCOON:013:1,2017-06-19T23:18:00Z,27.4847,-97.3181,0.656,1111122 
TCOON,ioos:station:TCOON:013:1,2017-06-20T00:18:00Z,27.4847,-97.3181,0.656,1111122 
TCOON,ioos:station:TCOON:013:1,2017-06-20T01:18:00Z,27.4847,-97.3181,0.655,1111122 
TCOON,ioos:station:TCOON:013:1,2017-06-20T02:18:00Z,27.4847,-97.3181,0.654,1111122 
TCOON,ioos:station:TCOON:013:1,2017-06-20T03:18:00Z,27.4847,-97.3181,0.65,1111122 
TCOON,ioos:station:TCOON:013:1,2017-06-20T04:18:00Z,27.4847,-97.3181,0.645,1111122 
TCOON,ioos:station:TCOON:013:1,2017-06-20T05:18:00Z,27.4847,-97.3181,0.642,1111122 
TCOON,ioos:station:TCOON:013:1,2017-06-20T06:18:00Z,27.4847,-97.3181,0.639,1111122 
TCOON,ioos:station:TCOON:013:1,2017-06-20T07:18:00Z,27.4847,-97.3181,0.639,1111122 
TCOON,ioos:station:TCOON:013:1,2017-06-20T08:18:00Z,27.4847,-97.3181,0.641,1111122 
TCOON,ioos:station:TCOON:013:1,2017-06-20T09:18:00Z,27.4847,-97.3181,0.644,1111122 
TCOON,ioos:station:TCOON:013:1,2017-06-20T10:18:00Z,27.4847,-97.3181,0.651,1111122 
TCOON,ioos:station:TCOON:013:1,2017-06-20T11:18:00Z,27.4847,-97.3181,0.657,1111122 
TCOON,ioos:station:TCOON:013:1,2017-06-20T12:24:00Z,27.4847,-97.3181,0.669,1111122 
TCOON,ioos:station:TCOON:013:1,2017-06-20T13:18:00Z,27.4847,-97.3181,0.676,1111122 
TCOON,ioos:station:TCOON:013:1,2017-06-20T14:18:00Z,27.4847,-97.3181,0.679,1111122 
TCOON,ioos:station:TCOON:013:1,2017-06-20T15:18:00Z,27.4847,-97.3181,0.682,1111122 
TCOON,ioos:station:TCOON:013:1,2017-06-20T16:18:00Z,27.4847,-97.3181,0.69,1111122 
TCOON,ioos:station:TCOON:013:1,2017-06-20T17:18:00Z,27.4847,-97.3181,0.69,1111122 
TCOON,ioos:station:TCOON:013:1,2017-06-20T18:18:00Z,27.4847,-97.3181,0.69,1111122 
TCOON,ioos:station:TCOON:013:1,2017-06-20T19:18:00Z,27.4847,-97.3181,0.691,1111122 
TCOON,ioos:station:TCOON:013:1,2017-06-20T20:18:00Z,27.4847,-97.3181,0.69,1111122 
TCOON,ioos:station:TCOON:013:1,2017-06-20T21:18:00Z,27.4847,-97.3181,0.691,1111122 
TCOON,ioos:station:TCOON:013:1,2017-06-20T22:18:00Z,27.4847,-97.3181,0.689,1111122 
TCOON,ioos:station:TCOON:013:1,2017-06-20T23:18:00Z,27.4847,-97.3181,0.695,1111122 
TCOON,ioos:station:TCOON:013:1,2017-06-21T00:18:00Z,27.4847,-97.3181,0.686,1111122 
TCOON,ioos:station:TCOON:013:1,2017-06-21T01:18:00Z,27.4847,-97.3181,0.686,1111122 
TCOON,ioos:station:TCOON:013:1,2017-06-21T02:18:00Z,27.4847,-97.3181,0.684,1111122 
TCOON,ioos:station:TCOON:013:1,2017-06-21T03:18:00Z,27.4847,-97.3181,0.684,1111122 
TCOON,ioos:station:TCOON:013:1,2017-06-21T04:18:00Z,27.4847,-97.3181,0.68,1111122 
TCOON,ioos:station:TCOON:013:1,2017-06-21T05:18:00Z,27.4847,-97.3181,0.678,1111122 
TCOON,ioos:station:TCOON:013:1,2017-06-21T06:18:00Z,27.4847,-97.3181,0.677,1111122 
TCOON,ioos:station:TCOON:013:1,2017-06-21T07:18:00Z,27.4847,-97.3181,0.678,1111122 
TCOON,ioos:station:TCOON:013:1,2017-06-21T08:18:00Z,27.4847,-97.3181,0.683,1111122 
TCOON,ioos:station:TCOON:013:1,2017-06-21T09:18:00Z,27.4847,-97.3181,0.694,1111122 
TCOON,ioos:station:TCOON:013:1,2017-06-21T10:18:00Z,27.4847,-97.3181,0.703,1111122 
TCOON,ioos:station:TCOON:013:1,2017-06-21T11:18:00Z,27.4847,-97.3181,0.712,1111122 
TCOON,ioos:station:TCOON:013:1,2017-06-21T12:36:00Z,27.4847,-97.3181,0.722,1111122 
TCOON,ioos:station:TCOON:013:1,2017-06-21T13:24:00Z,27.4847,-97.3181,0.729,1111122 
TCOON,ioos:station:TCOON:013:1,2017-06-21T20:54:00Z,27.4847,-97.3181,0.773,1111122 
TCOON,ioos:station:TCOON:013:1,2017-06-21T21:18:00Z,27.4847,-97.3181,0.776,1111122 
TCOON,ioos:station:TCOON:013:1,2017-06-21T22:18:00Z,27.4847,-97.3181,0.783,1111122 
TCOON,ioos:station:TCOON:013:1,2017-06-21T23:24:00Z,27.4847,-97.3181,0.791,1111122 
TCOON,ioos:station:TCOON:013:1,2017-06-22T00:18:00Z,27.4847,-97.3181,0.795,1111122 
TCOON,ioos:station:TCOON:013:1,2017-06-22T01:18:00Z,27.4847,-97.3181,0.803,1111122 
TCOON,ioos:station:TCOON:013:1,2017-06-22T02:18:00Z,27.4847,-97.3181,0.816,1111122 
TCOON,ioos:station:TCOON:013:1,2017-06-22T03:18:00Z,27.4847,-97.3181,0.826,1111122 
TCOON,ioos:station:TCOON:013:1,2017-06-22T04:18:00Z,27.4847,-97.3181,0.829,1111122 
TCOON,ioos:station:TCOON:013:1,2017-06-22T05:18:00Z,27.4847,-97.3181,0.834,1111122 
TCOON,ioos:station:TCOON:013:1,2017-06-22T06:18:00Z,27.4847,-97.3181,0.836,1111122 
TCOON,ioos:station:TCOON:013:1,2017-06-22T07:18:00Z,27.4847,-97.3181,0.836,1111122 
TCOON,ioos:station:TCOON:013:1,2017-06-22T08:18:00Z,27.4847,-97.3181,0.842,1111122 
TCOON,ioos:station:TCOON:013:1,2017-06-22T09:18:00Z,27.4847,-97.3181,0.852,1111122 
TCOON,ioos:station:TCOON:013:1,2017-06-22T10:18:00Z,27.4847,-97.3181,0.857,1111122 
TCOON,ioos:station:TCOON:013:1,2017-06-22T11:18:00Z,27.4847,-97.3181,0.869,1111122 
TCOON,ioos:station:TCOON:013:1,2017-06-22T12:18:00Z,27.4847,-97.3181,0.878,1111122 
TCOON,ioos:station:TCOON:013:1,2017-06-22T13:18:00Z,27.4847,-97.3181,0.889,1111122 
TCOON,ioos:station:TCOON:013:1,2017-06-22T14:18:00Z,27.4847,-97.3181,0.901,1111122 
TCOON,ioos:station:TCOON:013:1,2017-06-22T15:18:00Z,27.4847,-97.3181,0.908,1111122 
TCOON,ioos:station:TCOON:013:1,2017-06-22T16:18:00Z,27.4847,-97.3181,0.915,1111122 
TCOON,ioos:station:TCOON:013:1,2017-06-22T17:18:00Z,27.4847,-97.3181,0.918,1111122 
TCOON,ioos:station:TCOON:013:1,2017-06-22T18:18:00Z,27.4847,-97.3181,0.92,1111122 
TCOON,ioos:station:TCOON:013:1,2017-06-22T19:18:00Z,27.4847,-97.3181,0.924,1111122 
TCOON,ioos:station:TCOON:013:1,2017-06-22T20:18:00Z,27.4847,-97.3181,0.927,1111122 
TCOON,ioos:station:TCOON:013:1,2017-06-22T21:18:00Z,27.4847,-97.3181,0.929,1111122 
TCOON,ioos:station:TCOON:013:1,2017-06-22T22:18:00Z,27.4847,-97.3181,0.928,1111122 
TCOON,ioos:station:TCOON:013:1,2017-06-22T23:18:00Z,27.4847,-97.3181,0.93,1111122 
TCOON,ioos:station:TCOON:013:1,2017-06-23T00:18:00Z,27.4847,-97.3181,0.92,1111122 
TCOON,ioos:station:TCOON:013:1,2017-06-23T01:18:00Z,27.4847,-97.3181,0.917,1111122 
TCOON,ioos:station:TCOON:013:1,2017-06-23T02:18:00Z,27.4847,-97.3181,0.908,1111122 
TCOON,ioos:station:TCOON:013:1,2017-06-23T03:18:00Z,27.4847,-97.3181,0.903,1111122 
TCOON,ioos:station:TCOON:013:1,2017-06-23T04:18:00Z,27.4847,-97.3181,0.898,1111122 
TCOON,ioos:station:TCOON:013:1,2017-06-23T05:18:00Z,27.4847,-97.3181,0.895,1111122 
TCOON,ioos:station:TCOON:013:1,2017-06-23T06:18:00Z,27.4847,-97.3181,0.89,1111122 
TCOON,ioos:station:TCOON:013:1,2017-06-23T07:18:00Z,27.4847,-97.3181,0.888,1111122 
TCOON,ioos:station:TCOON:013:1,2017-06-23T08:18:00Z,27.4847,-97.3181,0.882,1111122 
TCOON,ioos:station:TCOON:013:1,2017-06-23T09:18:00Z,27.4847,-97.3181,0.873,1111122 
TCOON,ioos:station:TCOON:013:1,2017-06-23T10:18:00Z,27.4847,-97.3181,0.868,1111122 
TCOON,ioos:station:TCOON:013:1,2017-06-23T11:18:00Z,27.4847,-97.3181,0.867,1111122 
TCOON,ioos:station:TCOON:013:1,2017-06-23T12:18:00Z,27.4847,-97.3181,0.858,1111122 
TCOON,ioos:station:TCOON:013:1,2017-06-23T13:18:00Z,27.4847,-97.3181,0.854,1111122 
TCOON,ioos:station:TCOON:013:1,2017-06-23T14:18:00Z,27.4847,-97.3181,0.849,1111122 
TCOON,ioos:station:TCOON:013:1,2017-06-23T15:18:00Z,27.4847,-97.3181,0.848,1111122 
TCOON,ioos:station:TCOON:013:1,2017-06-23T16:18:00Z,27.4847,-97.3181,0.848,1111122 
TCOON,ioos:station:TCOON:013:1,2017-06-23T17:18:00Z,27.4847,-97.3181,0.844,1111122 
TCOON,ioos:station:TCOON:013:1,2017-06-23T18:18:00Z,27.4847,-97.3181,0.844,1111122 
TCOON,ioos:station:TCOON:013:1,2017-06-23T19:18:00Z,27.4847,-97.3181,0.84,1111122 
TCOON,ioos:station:TCOON:013:1,2017-06-23T20:18:00Z,27.4847,-97.3181,0.84,1111122 
TCOON,ioos:station:TCOON:013:1,2017-06-23T21:18:00Z,27.4847,-97.3181,0.837,1111122 
TCOON,ioos:station:TCOON:013:1,2017-06-23T22:18:00Z,27.4847,-97.3181,0.83,1111122 
TCOON,ioos:station:TCOON:013:1,2017-06-23T23:18:00Z,27.4847,-97.3181,0.825,1111122 
TCOON,ioos:station:TCOON:013:1,2017-06-24T00:18:00Z,27.4847,-97.3181,0.823,1111122 
TCOON,ioos:station:TCOON:013:1,2017-06-24T01:18:00Z,27.4847,-97.3181,0.823,1111122 
TCOON,ioos:station:TCOON:013:1,2017-06-24T02:18:00Z,27.4847,-97.3181,0.815,1111122 
TCOON,ioos:station:TCOON:013:1,2017-06-24T03:18:00Z,27.4847,-97.3181,0.813,1111122 
TCOON,ioos:station:TCOON:013:1,2017-06-24T04:18:00Z,27.4847,-97.3181,0.803,1111122 
TCOON,ioos:station:TCOON:013:1,2017-06-24T05:18:00Z,27.4847,-97.3181,0.8,1111122 
TCOON,ioos:station:TCOON:013:1,2017-06-24T08:42:00Z,27.4847,-97.3181,0.79,1111122 
TCOON,ioos:station:TCOON:013:1,2017-06-24T15:18:00Z,27.4847,-97.3181,0.794,1111122 
TCOON,ioos:station:TCOON:013:1,2017-06-24T16:18:00Z,27.4847,-97.3181,0.8,1111122 
TCOON,ioos:station:TCOON:013:1,2017-06-24T17:18:00Z,27.4847,-97.3181,0.804,1111122 
TCOON,ioos:station:TCOON:013:1,2017-06-24T18:30:00Z,27.4847,-97.3181,0.814,1111122 
TCOON,ioos:station:TCOON:013:1,2017-06-24T19:24:00Z,27.4847,-97.3181,0.817,1111122 
TCOON,ioos:station:TCOON:013:1,2017-06-24T20:18:00Z,27.4847,-97.3181,0.827,1111122 
TCOON,ioos:station:TCOON:013:1,2017-06-24T21:18:00Z,27.4847,-97.3181,0.847,1111122 
TCOON,ioos:station:TCOON:013:1,2017-06-24T22:18:00Z,27.4847,-97.3181,0.821,1111122 
TCOON,ioos:station:TCOON:013:1,2017-06-24T23:18:00Z,27.4847,-97.3181,0.824,1111122 
TCOON,ioos:station:TCOON:013:1,2017-06-25T00:18:00Z,27.4847,-97.3181,0.828,1111122 
TCOON,ioos:station:TCOON:013:1,2017-06-25T01:18:00Z,27.4847,-97.3181,0.831,1111122 
TCOON,ioos:station:TCOON:013:1,2017-06-25T02:18:00Z,27.4847,-97.3181,0.839,1111122 
TCOON,ioos:station:TCOON:013:1,2017-06-25T03:18:00Z,27.4847,-97.3181,0.83,1111122 
TCOON,ioos:station:TCOON:013:1,2017-06-25T04:18:00Z,27.4847,-97.3181,0.818,1111122 
TCOON,ioos:station:TCOON:013:1,2017-06-25T05:18:00Z,27.4847,-97.3181,0.818,1111122 
TCOON,ioos:station:TCOON:013:1,2017-06-25T06:18:00Z,27.4847,-97.3181,0.815,1111122 
TCOON,ioos:station:TCOON:013:1,2017-06-25T07:18:00Z,27.4847,-97.3181,0.809,1111122 
TCOON,ioos:station:TCOON:013:1,2017-06-25T08:18:00Z,27.4847,-97.3181,0.802,1111122 
TCOON,ioos:station:TCOON:013:1,2017-06-25T09:18:00Z,27.4847,-97.3181,0.802,1111122 
TCOON,ioos:station:TCOON:013:1,2017-06-25T10:24:00Z,27.4847,-97.3181,0.794,1111122 
TCOON,ioos:station:TCOON:013:1,2017-06-25T16:30:00Z,27.4847,-97.3181,0.809,1111122 
TCOON,ioos:station:TCOON:013:1,2017-06-25T17:18:00Z,27.4847,-97.3181,0.816,1111122 
TCOON,ioos:station:TCOON:013:1,2017-06-25T18:18:00Z,27.4847,-97.3181,0.817,1111122 
TCOON,ioos:station:TCOON:013:1,2017-06-25T19:18:00Z,27.4847,-97.3181,0.821,1111122 
TCOON,ioos:station:TCOON:013:1,2017-06-25T20:18:00Z,27.4847,-97.3181,0.826,1111122 
TCOON,ioos:station:TCOON:013:1,2017-06-25T21:18:00Z,27.4847,-97.3181,0.832,1111122 
TCOON,ioos:station:TCOON:013:1,2017-06-25T22:18:00Z,27.4847,-97.3181,0.835,1111122 
TCOON,ioos:station:TCOON:013:1,2017-06-25T23:18:00Z,27.4847,-97.3181,0.837,1111122 
TCOON,ioos:station:TCOON:013:1,2017-06-26T00:18:00Z,27.4847,-97.3181,0.838,1111122 
TCOON,ioos:station:TCOON:013:1,2017-06-26T01:18:00Z,27.4847,-97.3181,0.838,1111122 
TCOON,ioos:station:TCOON:013:1,2017-06-26T02:18:00Z,27.4847,-97.3181,0.835,1111122 
TCOON,ioos:station:TCOON:013:1,2017-06-26T03:18:00Z,27.4847,-97.3181,0.828,1111122 
TCOON,ioos:station:TCOON:013:1,2017-06-26T04:18:00Z,27.4847,-97.3181,0.826,1111122 
TCOON,ioos:station:TCOON:013:1,2017-06-26T05:18:00Z,27.4847,-97.3181,0.821,1111122 
TCOON,ioos:station:TCOON:013:1,2017-06-26T06:18:00Z,27.4847,-97.3181,0.817,1111122 
TCOON,ioos:station:TCOON:013:1,2017-06-26T07:18:00Z,27.4847,-97.3181,0.81,1111122 
TCOON,ioos:station:TCOON:013:1,2017-06-26T08:18:00Z,27.4847,-97.3181,0.804,1111122 
TCOON,ioos:station:TCOON:013:1,2017-06-26T09:18:00Z,27.4847,-97.3181,0.802,1111122 
TCOON,ioos:station:TCOON:013:1,2017-06-26T10:18:00Z,27.4847,-97.3181,0.799,1111122 
TCOON,ioos:station:TCOON:013:1,2017-06-26T11:18:00Z,27.4847,-97.3181,0.801,1111122 